GW0870 Weather Reports


time (UTC)temp
C
wind
direction
speed
KPH
gust
KPH
rain 1hr
cm
rain 24hr
cm
rain mn
cm
humidity
%
barometer
mb
20260509181545 20 213 3.2 11.3 0.00 0.00 0.00 73 1010.8
20260509180052 20 218 3.2 11.3 0.00 0.00 0.00 74 1011.0
20260509174543 20 155 3.2 8.0 0.00 0.00 0.00 73 1011.2
20260509173056 20 105 3.2 6.4 0.00 0.00 0.00 74 1011.2
20260509171549 20 247 4.8 16.1 0.00 0.00 0.00 73 1011.4
20260509170058 20 225 4.8 12.9 0.00 0.00 0.00 72 1011.6
20260509164549 20 244 3.2 12.9 0.00 0.00 0.00 75 1011.7
20260509163058 20 207 4.8 8.0 0.00 0.00 0.00 75 1012.1
20260509161553 20 220 1.6 11.3 0.00 0.00 0.00 77 1012.3
20260509160051 19 147 1.6 9.7 0.00 0.00 0.00 77 1012.5
20260509154557 18 247 3.2 12.9 0.00 0.00 0.00 80 1012.4
20260509153045 18 161 3.2 6.4 0.00 0.00 0.00 81 1012.2
20260509151542 17 134 1.6 6.4 0.00 0.00 0.00 83 1012.3
20260509150045 17 134 1.6 9.7 0.00 0.00 0.00 83 1012.4
20260509144539 17 115 1.6 9.7 0.00 0.00 0.00 85 1012.4
20260509143054 17 214 0.0 12.9 0.00 0.00 0.00 86 1012.2
20260509141546 16 134 3.2 9.7 0.00 0.00 0.00 86 1012.5
20260509140043 16 159 1.6 11.3 0.00 0.00 0.00 88 1012.7
20260509134540 16 185 0.0 6.4 0.00 0.00 0.00 88 1013.0
20260509133040 15 223 1.6 3.2 0.00 0.00 0.00 89 1012.8
20260509131547 15 0 0.0 1.6 0.00 0.00 0.00 89 1013.1
20260509130053 14 127 0.0 1.6 0.00 0.00 0.00 91 1013.1
20260509124553 13 0 0.0 3.2 0.00 0.00 0.00 92 1013.4
20260509123050 12 0 0.0 3.2 0.00 0.00 0.00 92 1013.4
20260509121556 12 245 0.0 3.2 0.00 0.00 0.00 93 1013.3
20260509120049 12 219 0.0 3.2 0.00 0.00 0.00 94 1012.8
20260509114559 11 0 0.0 0.0 0.00 0.00 0.00 94 1013.0
20260509113044 10 0 0.0 0.0 0.00 0.00 0.00 94 1013.1
20260509111542 10 0 0.0 0.0 0.00 0.00 0.00 94 1013.2
20260509110041 9 0 0.0 0.0 0.00 0.00 0.00 94 1012.9
20260509104547 9 0 0.0 0.0 0.00 0.00 0.00 94 1013.1
20260509103039 8 0 0.0 0.0 0.00 0.00 0.00 93 1012.8
20260509101548 8 0 0.0 0.0 0.00 0.00 0.00 93 1012.5
20260509100046 8 0 0.0 0.0 0.00 0.00 0.00 93 1012.4
20260509094548 8 0 0.0 0.0 0.00 0.00 0.00 92 1012.3
20260509093043 9 0 0.0 0.0 0.00 0.00 0.00 92 1012.3
20260509091542 9 0 0.0 0.0 0.00 0.00 0.00 93 1012.4
20260509090056 9 0 0.0 0.0 0.00 0.00 0.00 92 1012.4
20260509084547 9 0 0.0 0.0 0.00 0.00 0.00 93 1012.3
20260509083050 9 0 0.0 0.0 0.00 0.00 0.00 92 1012.4
20260509081541 9 0 0.0 0.0 0.00 0.00 0.00 92 1012.2
20260509080104 10 0 0.0 0.0 0.00 0.00 0.00 92 1012.5
20260509074544 10 0 0.0 0.0 0.00 0.00 0.00 91 1012.8
20260509073043 10 0 0.0 0.0 0.00 0.00 0.00 91 1012.9
20260509071551 10 0 0.0 0.0 0.00 0.00 0.00 91 1013.2
20260509070046 10 0 0.0 0.0 0.00 0.00 0.00 90 1013.2
20260509064548 10 0 0.0 0.0 0.00 0.00 0.00 90 1013.3
20260509063100 11 0 0.0 0.0 0.00 0.00 0.00 90 1013.5
20260509061544 11 0 0.0 0.0 0.00 0.00 0.00 89 1013.7
20260509060044 11 0 0.0 0.0 0.00 0.00 0.00 88 1013.8
20260509054553 11 0 0.0 0.0 0.00 0.00 0.00 88 1014.1
20260509053050 11 0 0.0 0.0 0.00 0.00 0.00 87 1014.4
20260509051603 12 0 0.0 0.0 0.00 0.00 0.00 86 1014.4
20260509050059 12 0 0.0 0.0 0.00 0.00 0.00 87 1014.5
20260509044542 12 0 0.0 0.0 0.00 0.00 0.00 86 1014.7
20260509043047 12 0 0.0 0.0 0.00 0.00 0.00 85 1014.9
20260509041551 12 0 0.0 0.0 0.00 0.00 0.00 85 1014.9
20260509040041 12 0 0.0 0.0 0.00 0.00 0.00 84 1014.7
20260509034558 13 0 0.0 0.0 0.00 0.00 0.00 83 1014.7
20260509033058 13 0 0.0 0.0 0.00 0.00 0.00 84 1014.7
20260509031545 13 0 0.0 0.0 0.00 0.00 0.00 83 1014.8
20260509030049 13 0 0.0 0.0 0.00 0.00 0.00 83 1014.8
20260509024557 13 0 0.0 0.0 0.00 0.00 0.00 81 1014.9
20260509023047 13 0 0.0 0.0 0.00 0.00 0.00 81 1015.3
20260509021548 13 0 0.0 0.0 0.00 0.00 0.00 80 1015.2
20260509020049 14 0 0.0 0.0 0.00 0.00 0.00 78 1015.0
20260509014550 14 0 0.0 0.0 0.00 0.00 0.00 76 1015.0
20260509013050 15 0 0.0 0.0 0.00 0.00 0.00 75 1014.9
20260509011601 15 0 0.0 0.0 0.00 0.00 0.00 71 1014.5
20260509010046 15 0 0.0 0.0 0.00 0.00 0.00 71 1014.5
20260509004555 16 0 0.0 0.0 0.00 0.00 0.00 68 1014.4
20260509003046 16 0 0.0 0.0 0.00 0.00 0.00 62 1014.4
20260509001553 17 0 0.0 0.0 0.00 0.00 0.00 62 1014.2
20260509000050 17 0 0.0 0.0 0.00 0.00 0.00 56 1014.0
20260508234547 18 0 0.0 0.0 0.00 0.00 0.00 56 1014.0
20260508233049 19 0 0.0 1.6 0.00 0.00 0.00 50 1014.1
20260508231553 20 0 0.0 1.6 0.00 0.00 0.00 47 1013.9
20260508230043 20 250 0.0 1.6 0.00 0.00 0.00 46 1014.1
20260508224601 20 137 1.6 4.8 0.00 0.00 0.00 44 1014.0
20260508223048 21 253 0.0 3.2 0.00 0.00 0.00 40 1014.1
20260508221556 21 0 0.0 4.8 0.00 0.00 0.00 39 1014.1
20260508220049 22 0 0.0 3.2 0.00 0.00 0.00 37 1013.9
20260508214549 22 0 1.6 4.8 0.00 0.00 0.00 37 1013.8
20260508213049 21 0 1.6 3.2 0.00 0.00 0.00 39 1013.8
20260508211553 21 0 0.0 3.2 0.00 0.00 0.00 39 1014.1
20260508210049 21 203 1.6 6.4 0.00 0.00 0.00 37 1014.3
20260508204547 21 200 0.0 4.8 0.00 0.00 0.00 34 1014.2
20260508203048 22 215 0.0 9.7 0.00 0.00 0.00 35 1014.3
20260508201544 21 265 3.2 8.0 0.00 0.00 0.00 32 1014.5
20260508200105 21 60 3.2 11.3 0.00 0.00 0.00 35 1014.6
20260508194548 21 230 4.8 12.9 0.00 0.00 0.00 32 1015.1
20260508193058 22 232 1.6 6.4 0.00 0.00 0.00 33 1015.3
20260508191547 22 267 3.2 12.9 0.00 0.00 0.00 33 1015.4
20260508190043 21 0 4.8 9.7 0.00 0.00 0.00 32 1015.5
20260508184549 21 204 3.2 8.0 0.00 0.00 0.00 33 1016.0
20260508183106 21 0 0.0 11.3 0.00 0.00 0.00 33 1016.0